Weather History for Mackinac Island, MI

Change the Weather History Date:

Sunday, February 2, 2014

  Actual Average Record
Temperature  
Mean Temperature 9 °F -  
Max Temperature 18 °F 25 °F 37 °F (2005)
Min Temperature 0 °F 14 °F -24 °F (1976)
Degree Days  
Heating Degree Days 56    
Moisture  
Dew Point 7 °F    
Average Humidity 83    
Maximum Humidity 93    
Minimum Humidity 62    
Precipitation  
Precipitation 0.00 in - - ()
Sea Level Pressure  
Sea Level Pressure 30.10 in    
Wind  
Wind Speed 7 mph (WNW)    
Max Wind Speed 14 mph    
Max Gust Speed 17 mph    
Visibility 8 miles    
Events Snow    
Averages and records for this station are not official NWS values.
T = Trace of Precipitation, MM = Missing Value Source: NWS Daily Summary

Daily Weather History Graph

Daily Weather History Graph

Search for Another Location

Airport:

Trip Planner

Search our weather history database for the weather conditions in past years. The results will help you decide how hot, cold, wet, or windy it might be!

Date:

Astronomy

Feb. 02, 2014 Rise Set
Actual Time 7:59 AM EST 5:45 PM EST
Civil Twilight 7:27 AM EST 6:17 PM EST
Nautical Twilight 6:51 AM EST 6:53 PM EST
Astronomical Twilight 6:17 AM EST 7:28 PM EST
Moon 9:12 AM EST (2/2) 9:43 PM EST (2/2)
Length of Visible Light 10h 50m
Length of Day
9h 46m
Waxing Crescent, 11% of the Moon is Illuminated
Feb 2
Waxing Crescent
Feb 6
First Quarter
Feb 14
Full
Feb 22
Last Quarter
Mar 1
New

Hourly Weather History & Observations

Time (EST) Temp. Windchill Dew Point Humidity Pressure Visibility Wind Dir Wind Speed Gust Speed Precip Events Conditions
12:14 AM 12.7 °F 3.6 °F 10.9 °F 92% 29.96 in 10.0 mi West 5.8 mph - N/A   Overcast
12:35 AM 13.1 °F 2.8 °F 11.3 °F 93% 29.96 in 10.0 mi West 6.9 mph - N/A   Overcast
12:54 AM 13.3 °F 4.2 °F 11.3 °F 92% 29.97 in 10.0 mi West 5.8 mph - N/A   Overcast
1:15 AM 13.5 °F 5.8 °F 11.5 °F 92% 29.97 in 10.0 mi WNW 4.6 mph - N/A   Overcast
1:34 AM 13.6 °F 3.5 °F 11.8 °F 93% 29.97 in 10.0 mi West 6.9 mph - N/A   Overcast
1:54 AM 13.5 °F 1.3 °F 11.1 °F 90% 29.97 in 10.0 mi WNW 9.2 mph - N/A   Overcast
2:15 AM 13.1 °F 2.8 °F 10.4 °F 89% 29.97 in 10.0 mi West 6.9 mph - N/A   Overcast
2:34 AM 12.7 °F 0.4 °F 10.4 °F 90% 29.99 in 10.0 mi West 9.2 mph - N/A   Overcast
2:54 AM 12.9 °F -0.9 °F 10.4 °F 90% 29.99 in 10.0 mi West 11.5 mph 17.3 mph N/A   Overcast
3:15 AM 12.7 °F -0.4 °F 10.2 °F 90% 29.99 in 10.0 mi West 10.4 mph - N/A   Overcast
3:34 AM 12.2 °F -1.0 °F 10.0 °F 91% 29.99 in 10.0 mi West 10.4 mph - N/A   Overcast
3:54 AM 11.8 °F -0.7 °F 9.5 °F 90% 29.99 in 10.0 mi West 9.2 mph - N/A   Overcast
4:15 AM 11.3 °F 1.9 °F 9.5 °F 92% 29.98 in 10.0 mi West 5.8 mph - N/A   Scattered Clouds
4:34 AM 11.1 °F 0.4 °F 9.0 °F 91% 29.97 in 10.0 mi West 6.9 mph - N/A   Clear
4:54 AM 10.8 °F 2.7 °F 8.6 °F 91% 29.98 in 10.0 mi West 4.6 mph - N/A   Clear
5:15 AM 10.0 °F 0.4 °F 8.1 °F 92% 30.00 in 10.0 mi WSW 5.8 mph - N/A   Clear
5:34 AM 10.4 °F -0.4 °F 8.2 °F 91% 30.00 in 10.0 mi West 6.9 mph - N/A   Clear
5:54 AM 9.7 °F -0.1 °F 7.2 °F 90% 30.01 in 10.0 mi WSW 5.8 mph - N/A   Clear
6:15 AM 6.4 °F -8.2 °F 4.1 °F 90% 30.01 in 2.5 mi West 10.4 mph - N/A Snow Light Snow
6:34 AM 7.3 °F -5.2 °F 5.4 °F 92% 30.02 in 1.5 mi WSW 8.1 mph - N/A Snow Light Snow
6:55 AM 6.8 °F -4.8 °F 4.6 °F 91% 30.02 in 1.0 mi WSW 6.9 mph - N/A Snow Light Snow
7:15 AM 8.2 °F -6.8 °F 6.4 °F 92% 30.03 in 7.0 mi West 11.5 mph - N/A   Overcast
7:34 AM 9.3 °F -2.8 °F 7.2 °F 91% 30.03 in 10.0 mi West 8.1 mph - N/A Snow Light Snow
7:55 AM 9.3 °F -2.8 °F 6.8 °F 89% 30.05 in 7.0 mi West 8.1 mph - N/A Snow Light Snow
8:15 AM 9.7 °F -2.4 °F 7.5 °F 91% 30.05 in 3.0 mi West 8.1 mph - N/A Snow Light Snow
8:34 AM 10.2 °F 0.6 °F 8.1 °F 91% 30.06 in 2.5 mi West 5.8 mph - N/A Snow Light Snow
8:55 AM 10.9 °F -1.8 °F 8.6 °F 90% 30.07 in 3.0 mi West 9.2 mph - N/A Snow Light Snow
9:14 AM 11.3 °F -0.4 °F 8.6 °F 89% 30.08 in 2.0 mi West 8.1 mph - N/A Snow Light Snow
9:34 AM 11.8 °F 2.5 °F 9.5 °F 90% 30.08 in 1.2 mi WSW 5.8 mph - N/A Snow Light Snow
9:55 AM 12.2 °F 1.7 °F 10.0 °F 91% 30.09 in 2.0 mi West 6.9 mph - N/A Snow Light Snow
10:14 AM 13.3 °F 2.0 °F 10.8 °F 90% 30.09 in 2.5 mi West 8.1 mph - N/A Snow Light Snow
10:34 AM 14.2 °F 4.1 °F 10.8 °F 86% 30.10 in 7.0 mi West 6.9 mph - N/A   Overcast
10:55 AM 14.0 °F 2.9 °F 10.4 °F 86% 30.10 in 10.0 mi West 8.1 mph - N/A   Overcast
11:14 AM 15.4 °F 3.8 °F 11.3 °F 84% 30.11 in 7.0 mi West 9.2 mph - N/A   Overcast
11:34 AM 15.4 °F 3.8 °F 11.3 °F 84% 30.11 in 4.0 mi West 9.2 mph - N/A Snow Light Snow
11:55 AM 16.2 °F 6.5 °F 12.2 °F 84% 30.11 in 4.0 mi West 6.9 mph - N/A Snow Light Snow
12:14 PM 17.2 °F 6.8 °F 12.0 °F 80% 30.11 in 5.0 mi WNW 8.1 mph - N/A Snow Light Snow
12:34 PM 17.1 °F 6.6 °F 11.5 °F 79% 30.11 in 4.0 mi NW 8.1 mph - N/A Snow Light Snow
12:55 PM 17.4 °F 6.2 °F 11.1 °F 76% 30.11 in 5.0 mi NW 9.2 mph - N/A Snow Light Snow
1:14 PM 17.1 °F 6.6 °F 10.4 °F 75% 30.12 in 4.0 mi WNW 8.1 mph - N/A Snow Light Snow
1:35 PM 17.2 °F 6.0 °F 9.7 °F 72% 30.12 in 10.0 mi WNW 9.2 mph - N/A   Overcast
1:55 PM 17.8 °F 7.5 °F 9.5 °F 70% 30.12 in 10.0 mi WNW 8.1 mph - N/A   Overcast
2:14 PM 18.1 °F 7.9 °F 9.0 °F 67% 30.11 in 10.0 mi WNW 8.1 mph - N/A   Overcast
2:35 PM 18.7 °F 9.5 °F 8.6 °F 65% 30.11 in 10.0 mi WNW 6.9 mph - N/A   Overcast
2:54 PM 18.0 °F 4.8 °F 7.0 °F 62% 30.12 in 10.0 mi West 12.7 mph - N/A   Overcast
3:14 PM 16.9 °F 4.1 °F 6.1 °F 63% 30.12 in 10.0 mi West 11.5 mph - N/A   Overcast
3:35 PM 16.2 °F 3.9 °F 5.9 °F 64% 30.14 in 10.0 mi West 10.4 mph - N/A   Mostly Cloudy
3:54 PM 15.4 °F 1.0 °F 5.9 °F 66% 30.14 in 10.0 mi West 13.8 mph - N/A   Overcast
4:14 PM 14.9 °F 4.0 °F 6.8 °F 70% 30.14 in 10.0 mi WNW 8.1 mph - N/A   Overcast
4:35 PM 14.9 °F 5.0 °F 5.9 °F 68% 30.16 in 10.0 mi NW 6.9 mph - N/A   Overcast
4:54 PM 14.7 °F 4.8 °F 6.3 °F 69% 30.17 in 10.0 mi WNW 6.9 mph - N/A   Overcast
5:14 PM 14.2 °F 2.2 °F 5.7 °F 69% 30.17 in 10.0 mi WNW 9.2 mph - N/A   Overcast
5:35 PM 13.6 °F 1.6 °F 5.7 °F 71% 30.19 in 10.0 mi WNW 9.2 mph - N/A   Overcast
5:54 PM 12.7 °F -0.4 °F 4.8 °F 71% 30.20 in 10.0 mi West 10.4 mph - N/A   Overcast
6:14 PM 12.2 °F 1.7 °F 4.8 °F 72% 30.20 in 10.0 mi WNW 6.9 mph - N/A   Overcast
6:35 PM 11.3 °F 1.9 °F 4.1 °F 73% 30.21 in 10.0 mi NW 5.8 mph - N/A   Mostly Cloudy
6:54 PM 10.8 °F 1.2 °F 3.7 °F 73% 30.22 in 10.0 mi WNW 5.8 mph - N/A   Overcast
7:14 PM 9.7 °F 3.2 °F 3.7 °F 77% 30.22 in 10.0 mi NW 3.5 mph - N/A   Overcast
7:34 PM 8.6 °F 0.1 °F 3.2 °F 79% 30.22 in 10.0 mi NW 4.6 mph - N/A   Overcast
7:54 PM 7.5 °F -1.1 °F 2.5 °F 80% 30.22 in 10.0 mi NW 4.6 mph - N/A   Mostly Cloudy
8:15 PM 6.1 °F -2.8 °F 1.4 °F 81% 30.21 in 10.0 mi NW 4.6 mph - N/A   Scattered Clouds
8:34 PM 4.5 °F -4.7 °F 1.0 °F 86% 30.22 in 10.0 mi NW 4.6 mph - N/A   Clear
8:54 PM 3.4 °F -5.9 °F -0.0 °F 86% 30.21 in 10.0 mi NNW 4.6 mph - N/A   Clear
9:15 PM 3.4 °F -5.9 °F -0.9 °F 82% 30.20 in 10.0 mi NNW 4.6 mph - N/A   Clear
9:35 PM 2.1 °F -5.4 °F -1.5 °F 85% 30.20 in 10.0 mi NNW 3.5 mph - N/A   Clear
9:54 PM 2.1 °F -5.4 °F -1.7 °F 84% 30.20 in 10.0 mi NNW 3.5 mph - N/A   Clear
10:15 PM 1.9 °F -5.6 °F -2.2 °F 83% 30.19 in 10.0 mi NNW 3.5 mph - N/A   Clear
10:34 PM -0.0 °F -7.9 °F -3.3 °F 86% 30.20 in 10.0 mi North 3.5 mph - N/A   Clear
10:54 PM 0.3 °F - -2.6 °F 88% 30.20 in 10.0 mi Calm Calm - N/A   Clear
11:15 PM -0.4 °F - -3.6 °F 86% 30.21 in 10.0 mi Calm Calm - N/A   Clear
11:34 PM -0.2 °F - -3.1 °F 88% 30.21 in 10.0 mi Calm Calm - N/A   Clear
11:54 PM -0.4 °F - -3.3 °F 88% 30.21 in 10.0 mi Calm Calm - N/A   Clear